Ft Lauderdale, FL

1:27 AM EST on February 23, 2018 (GMT -0500)
Fort Lauderdale-Hollywood International

Weather History for KFLL - September, 2013

Change the Weather History Date:

Tuesday, September 10, 2013

  Actual Average Record
Temperature  
Mean Temperature 84 °F 83 °F  
Max Temperature 89 °F 89 °F 96 °F (1954)
Min Temperature 78 °F 78 °F 67 °F (1950)
Cooling Degree Days 19 18  
Month to date cooling degree days 177 186  
Year to date cooling degree days 3224 3352  
Growing Degree Days 34 (Base 50)    
Moisture  
Dew Point 74 °F    
Average Humidity 75    
Maximum Humidity 91    
Minimum Humidity 59    
Precipitation  
Precipitation 0.04 in 0.26 in 2.99 in (1996)
Month to date precipitation 0.50 2.81  
Year to date precipitation 57.54 43.88  
Snow  
Snow 0.00 in - - ()
Month to date snowfall 0.0  
Since 1 July snowfall 0.0  
Since 1 September snowfall 0.0  
Snow Depth 0.00 in    
Sea Level Pressure  
Sea Level Pressure 30.00 in    
Wind  
Wind Speed 12 mph (ENE)    
Max Wind Speed 31 mph    
Max Gust Speed 38 mph    
Visibility 10 miles    
Events Rain    
T = Trace of Precipitation, MM = Missing Value Source: NWS Daily Summary

Daily Weather History Graph

Daily Weather History Graph

Search for Another Location

Airport or City:

Trip Planner

Search our weather history database for the weather conditions in past years. The results will help you decide how hot, cold, wet, or windy it might be!

Date:

Astronomy

Sep. 10, 2013 Rise Set
Actual Time 7:04 AM EDT 7:30 PM EDT
Civil Twilight 6:41 AM EDT 7:53 PM EDT
Nautical Twilight 6:14 AM EDT 8:20 PM EDT
Astronomical Twilight 5:46 AM EDT 8:47 PM EDT
Moon 11:54 AM EDT (9/10) 11:06 PM EDT (9/10)
Length of Visible Light 13h 11m
Length of Day
12h 25m
Waxing Crescent, 28% of the Moon is Illuminated
Sep 10
Waxing Crescent
Sep 12
First Quarter
Sep 19
Full
Sep 26
Last Quarter
Oct 4
New

Hourly Weather History & Observations

Time (EDT) Temp. Heat Index Dew Point Humidity Pressure Visibility Wind Dir Wind Speed Gust Speed Precip Events Conditions
12:53 AM 79.0 °F - 75.0 °F 88% 29.97 in 10.0 mi Calm Calm - N/A   Partly Cloudy
1:53 AM 80.1 °F 85.1 °F 75.0 °F 85% 29.97 in 10.0 mi ENE 5.8 mph - N/A   Partly Cloudy
2:53 AM 81.0 °F 86.7 °F 75.0 °F 82% 29.96 in 10.0 mi ENE 8.1 mph - N/A   Scattered Clouds
3:53 AM 81.0 °F 86.2 °F 73.9 °F 79% 29.95 in 10.0 mi East 4.6 mph - N/A   Scattered Clouds
4:21 AM 80.6 °F 85.4 °F 73.4 °F 79% 29.95 in 10.0 mi NNE 5.8 mph - N/A   Mostly Cloudy
4:31 AM 78.8 °F - 75.2 °F 89% 29.95 in 10.0 mi NNE 5.8 mph - 0.00 in Rain Light Rain
4:53 AM 81.0 °F 86.2 °F 73.9 °F 79% 29.95 in 10.0 mi ENE 6.9 mph - 0.00 in   Scattered Clouds
5:53 AM 81.0 °F 85.8 °F 73.0 °F 77% 29.96 in 10.0 mi ENE 10.4 mph - N/A   Scattered Clouds
6:53 AM 81.0 °F 85.8 °F 73.0 °F 77% 29.97 in 10.0 mi East 10.4 mph - 0.01 in   Partly Cloudy
7:53 AM 82.0 °F 87.9 °F 73.9 °F 76% 29.99 in 10.0 mi ENE 6.9 mph - N/A   Mostly Cloudy
8:53 AM 82.9 °F 89.4 °F 73.9 °F 74% 30.01 in 10.0 mi East 12.7 mph - N/A   Mostly Cloudy
9:51 AM 86.0 °F 95.1 °F 75.2 °F 70% 30.02 in 10.0 mi East 11.5 mph - N/A   Partly Cloudy
9:53 AM 86.0 °F 95.1 °F 75.0 °F 70% 30.02 in 10.0 mi ESE 13.8 mph - N/A   Partly Cloudy
10:53 AM 87.1 °F 95.4 °F 73.9 °F 65% 30.04 in 10.0 mi ENE 12.7 mph - N/A   Scattered Clouds
11:53 AM 88.0 °F 96.5 °F 73.9 °F 63% 30.03 in 10.0 mi ENE 13.8 mph 19.6 mph N/A   Scattered Clouds
12:53 PM 89.1 °F 99.1 °F 75.0 °F 63% 30.02 in 10.0 mi NE 15.0 mph 23.0 mph N/A   Scattered Clouds
1:53 PM 88.0 °F 94.7 °F 72.0 °F 59% 30.01 in 10.0 mi East 13.8 mph - N/A   Scattered Clouds
2:53 PM 87.1 °F 96.3 °F 75.0 °F 67% 30.00 in 10.0 mi NE 11.5 mph - N/A   Mostly Cloudy
3:30 PM 84.2 °F 90.9 °F 73.4 °F 70% 29.99 in 10.0 mi ENE 25.3 mph 36.8 mph N/A   Mostly Cloudy
3:53 PM 79.0 °F - 73.0 °F 82% 30.00 in 4.0 mi ENE 19.6 mph 25.3 mph 0.02 in Rain Light Rain
4:53 PM 82.0 °F 87.9 °F 73.9 °F 76% 29.99 in 10.0 mi East 16.1 mph - 0.01 in   Scattered Clouds
5:53 PM 82.0 °F 87.9 °F 73.9 °F 76% 29.99 in 10.0 mi ENE 12.7 mph - N/A   Scattered Clouds
6:53 PM 82.9 °F 90.2 °F 75.0 °F 77% 30.01 in 10.0 mi ENE 12.7 mph - N/A   Scattered Clouds
7:17 PM 82.4 °F 89.5 °F 75.2 °F 79% 30.01 in 10.0 mi ENE 13.8 mph - N/A   Mostly Cloudy
7:26 PM 82.4 °F 88.2 °F 73.4 °F 74% 30.01 in 10.0 mi East 16.1 mph 21.9 mph N/A   Mostly Cloudy
7:53 PM 82.9 °F 88.8 °F 73.0 °F 72% 30.00 in 10.0 mi East 11.5 mph - N/A   Mostly Cloudy
8:53 PM 82.0 °F 87.9 °F 73.9 °F 76% 30.01 in 10.0 mi East 13.8 mph - N/A   Mostly Cloudy
9:53 PM 82.0 °F 87.9 °F 73.9 °F 76% 30.03 in 10.0 mi East 12.7 mph - N/A   Scattered Clouds
10:53 PM 82.0 °F 87.9 °F 73.9 °F 76% 30.03 in 10.0 mi East 12.7 mph - N/A   Scattered Clouds
11:53 PM 81.0 °F 84.9 °F 71.1 °F 72% 30.02 in 10.0 mi ESE 11.5 mph - N/A   Partly Cloudy